Location: Sabalos
(43.2860°N, 0.1414°E)
Time: 04:15:26
(UTC+00:00)

Cosmos 2151 - Pass Details

Date: 05 July 2020
Orbit: 580 x 602 km, 82.5° (Epoch: 06 August)

Event Time Altitude Azimuth Distance (km) Brightness Sun altitude
Exits shadow 23:23:49 63° 253° (WSW) 674 3.1 -23.4°
Maximum altitude 23:24:08 65° 280° (W) 661 3.2 -23.4°
Drops below altitude 10° 23:28:24 10° 2° (N) 1,941 6.7 -23.5°
Sets 23:30:38 0° 6° (N) 2,844 7.8 -23.6°
